Skip Page Navigation
NASA JPL Caltech
NASA Logo - Jet Propulsion Laboratory + View the NASA Portal
+ Near-Earth Object (NEO) Program
Search JPL
JPL Home Earth Solar System Stars & Galaxies Technology
JPL Solar System Dynamics
BODIES ORBITS EPHEMERIDES TOOLS PHYSICAL DATA DISCOVERY FAQ SITE MAP
JPL Small-Body Database Browser
Search: [ help ]  
10853 Aimoto (1995 CW)
Classification: Main-belt Asteroid          SPK-ID: 2010853
Ephemeris | Orbit Diagram | Orbital Elements | Physical Parameters | Discovery Circumstances ]

[ hide orbit diagram ]
Orbit Diagram
Note: Make sure you have Java enabled on your browser to see the applet. This applet is provided as a 3D orbit visualization tool. The applet was implemented using 2-body methods, and hence should not be used for determining accurate long-term trajectories (over several years or decades) or planetary encounter circumstances. For accurate long-term ephemerides, please instead use our Horizons system.
Orbit Viewer

Additional Notes: the orbits shown in the applet are color coded. The planets are white lines, and the asteroid/comet is a blue line. The bright white line indicates the portion of the orbit that is above the ecliptic plane, and the darker portion is below the ecliptic plane. Likewise for the asteroid/comet orbit, the light blue indicates the portion above the ecliptic plane, and the dark blue the portion below the ecliptic plane.

Orbit Viewer applet originally written and kindly provided by Osamu Ajiki (AstroArts), and further modified by Ron Baalke (JPL).


Orbital Elements at Epoch 2456400.5 (2013-Apr-18.0) TDB
Reference: JPL 1 (heliocentric ecliptic J2000)
 Element Value Uncertainty (1-sigma)   Units 
e .06922236545142207 7.8915e-08  
a 2.311455186265991 1.8381e-08 AU
q 2.151450790637701 1.8558e-07 AU
i 6.857901234919193 7.3904e-06 deg
node 137.3182541814787 6.1582e-05 deg
peri 98.90370517138416 8.5062e-05 deg
M 330.6213172617369 5.8084e-05 deg
tp 2456505.250586250873
(2013-Jul-31.75058625)
0.00020706 JED
period 1283.590941985974
3.51
1.5311e-05
4.192e-08
d
yr
n .2804631820188817 3.3455e-09 deg/d
Q 2.47145958189428 1.9654e-08 AU
  Orbit Determination Parameters
   # obs. used (total)      733  
   data-arc span      7151 days (19.58 yr)  
   first obs. used      1993-09-23  
   last obs. used      2013-04-22  
   planetary ephem.      DE405  
   SB-pert. ephem.      SB405-CPV-2  
   condition code      0  
   fit RMS      .56061  
   data source      ORB  
   producer      Otto Matic  
   solution date      2013-Apr-29 13:41:57  

Additional Information
 Earth MOID = 1.15249 AU 
 T_jup = 3.571 
[ show covariance matrix ]

Ephemeris | Orbit Diagram | Orbital Elements | Physical Parameters | Discovery Circumstances ]

Physical Parameter Table
Parameter Symbol Value Units Sigma Reference Notes
absolute magnitude H 14.6 mag n/a PDS3 (MPC 34784)  

10853 Aimoto           Discovered 1995 Feb. 6 by T. Kojima at Chiyoda.
Minoru Aimoto (b. 1965), a senior researcher at Saji Observatory, is in charge of astronomical exhibitions and astronomical lectures for visitors to the observatory. His other pursuits include mainly photography of deep space, comets, etc., using a 1.03-m telescope and a wide-field telescope.
NOTE: some special characters may not display properly (any characters within {} are an attempt to place the proper accent above a character)
Reference: 20100726/MPCPages.arcLast Updated: 2010-07-28
Ephemeris | Orbit Diagram | Orbital Elements | Physical Parameters | Discovery Circumstances ]
ABOUT SSD CREDITS/AWARDS PRIVACY/COPYRIGHT GLOSSARY LINKS
FirstGov 2013-May-23 18:52 UT
(server date/time)  
NASA Home Page
Site Manager:   Donald K. Yeomans
Webmaster  Alan B. Chamberlin